Regional Weather Roundup
Issued by NWS

Home | Current Version | Previous Version | Text Only | Print | Product List | Glossary Off
Versions: 1 2 3 4 5 6 7 8 9 10 11 12 13 14 15 16 17 18 19 20 21 22 23 24 25 26 27 28 29 30 31 32 33 34 35 36 37 38 39 40 41 42 43 44 45 46 47 48 49 50

000
ASUS43 KOAX 301702
RWRNE

WEATHER ROUNDUP FOR NEBRASKA
NATIONAL WEATHER SERVICE OMAHA NE
1200 PM CDT WED JUL 30 2014

NOTES: SATELLITE DATA IS BEING USED TO AUGMENT CLOUD COVER ABOVE
       12000 FEET.
       "FAIR" INDICATES FEW OR NO CLOUDS BELOW 12,000 FEET WITH NO
       SIGNIFICANT WEATHER AND/OR OBSTRUCTIONS TO VISIBILITY.

  * THESE STATIONS DO NOT REPORT WEATHER SUCH AS RAIN...SNOW OR FOG.

NEZ001>004-019>022-054>056-301800-
NEBRASKA PANHANDLE

CITY           SKY/WX    TMP DP  RH WIND       PRES   REMARKS
SCOTTSBLUFF    PTSUNNY   74  59  59 VRB3      30.28S
ALLIANCE       PTSUNNY   76  51  41 VRB6      30.26S
CHADRON        PTSUNNY   74  53  48 W9        30.23S
KIMBALL        CLOUDY    62  56  78 E10       30.31R
SIDNEY         CLOUDY    67  60  78 CALM      30.30S
$$

NEZ057>060-069>072-079>082-301800-
SOUTHWEST NEBRASKA

CITY           SKY/WX    TMP DP  RH WIND       PRES   REMARKS
NORTH PLATTE   MOSUNNY   78  53  41 VRB5      30.22S
IMPERIAL       PTSUNNY   69  59  70 CALM      30.26S
LEXINGTON      MOSUNNY   75  57  52 NE6       30.21R
MCCOOK         CLOUDY    71  60  68 CALM      30.23R
OGALLALA       PTSUNNY   75  55  49 E5        30.24S
$$

NEZ005>010-023>029-035>040-094-301800-
NORTH CENTRAL NEBRASKA

CITY           SKY/WX    TMP DP  RH WIND       PRES   REMARKS
VALENTINE      SUNNY     79  50  36 W5        30.20F
AINSWORTH      SUNNY     77  51  41 NE6       30.21F
BROKEN BOW     MOSUNNY   79  55  43 NE6G16    30.20F
O`NEILL        MOSUNNY   77  52  41 CALM      30.19S
ORD            MOSUNNY   76  55  48 CALM      30.18S
THEDFORD       SUNNY     78  53  40 CALM      30.23S
$$

NEZ041-046>049-061>064-073>077-083>087-301800-
SOUTH CENTRAL NEBRASKA

CITY           SKY/WX    TMP DP  RH WIND       PRES   REMARKS
GRAND ISLAND   MOSUNNY   75  56  51 VRB5      30.20S
AURORA         MOSUNNY   75  56  51 E7        30.19S
HASTINGS       PTSUNNY   75  52  44 E6        30.20R
HEBRON         PTSUNNY   75  53  46 E3        30.17F
HOLDREGE       MOSUNNY   74  56  53 SE6       30.21R
KEARNEY *      PTSUNNY   73  55  53 NE3       30.20S
YORK           SUNNY     75  55  50 NE5       30.19S
$$

NEZ011>018-030>034-042>045-301800-
NORTHEAST NEBRASKA

CITY           SKY/WX    TMP DP  RH WIND       PRES   REMARKS
NORFOLK        MOSUNNY   75  52  44 W5        30.17F
ALBION         PTSUNNY   73  55  54 SW3       30.19S
BLAIR          SUNNY     75  53  47 NE5       30.17S
COLUMBUS *     MOSUNNY   75  54  46 CALM      30.18F
FREMONT        MOSUNNY   76  53  43 CALM      30.17F
TEKAMAH        SUNNY     79  53  40 VRB6      30.16S
WAYNE          MOSUNNY   76  57  52 CALM      30.18S
$$

NEZ050>053-065>068-078-088>093-301800-
SOUTHEAST NEBRASKA

CITY           SKY/WX    TMP DP  RH WIND       PRES   REMARKS
LINCOLN        PTSUNNY   79  52  38 N6        30.17F
OMAHA EPPLEY   MOSUNNY   77  55  46 N8        30.16S
BEATRICE       MOSUNNY   75  54  47 NE8       30.17S
FALLS CITY     MOSUNNY   79  57  46 NE8       30.14S
NEBRASKA CITY  MOSUNNY   76  53  45 NE8       30.16S
PLATTSMOUTH    SUNNY     76  51  42 NE6       30.16S
$$

NEZ044-045-051>053-067-301800-
OMAHA AREA

CITY           SKY/WX    TMP DP  RH WIND       PRES   REMARKS
OMAHA EPPLEY   MOSUNNY   77  55  46 N8        30.16S
BLAIR          SUNNY     75  53  47 NE5       30.17S
FREMONT        MOSUNNY   76  53  43 CALM      30.17F
MILLARD        MOSUNNY   74  54  48 NE5       30.16S
OFFUTT AFB     SUNNY     78  56  46 NE6       30.15S
PLATTSMOUTH    SUNNY     76  51  42 NE6       30.16S
WAHOO          FAIR      76  54  46 NE3       30.17S
$$



USA.gov is the U.S. government's official web portal to all federal, state and local government web resources and services.